Главная страница
METAR-TAF:

METAR-TAF

Аэропорты :

Butler, Пенсильвания, США

широта: 40-47N, долгота: 079-57W, высота над уровнем моря: 380 м

Текущие метеонаблюдения

Эта сводка был подготовлена 32 минут назад, в 08:56 UTC
Ветер 4 Узел от южный
Температура -1°C
Влажность 93%
Давление 1023 hPa
Видимость: 16.1 км
ясное небо

METAR: KBTP 220856Z AUTO 19004KT 10SM CLR M01/M02 A3021 RMK AO2 SLP248 T10111022 58002 FZRANO

Время: 05:28 (09:28 UTC)


TAF: отсутствует

Метеонаблюдения и прогнозы для более 4000 аэропортов (сводки METAR и TAF).

Имеющиеся станции представлены на карте желтыми и красными точками.

Чтобы увидеть название станции, наведите на нее мышь.

Затем щелкните, чтобы увидеть метеонаблюдения и метеопрогнозы.

Управление картой: чтобы увеличить масштаб, щелкните зеленые кнопки с черным крестиком; чтобы уменьшить масштаб, щелкните зеленую кнопку с тире; для просмотра соседних карт щелкайте зеленые стрелки.


METAR-TAF: